Regional Weather Roundup
Issued by NWS Sterling, VA

Home | Current Version | Previous Version | Graphics & Text | Print | Product List | Glossary On
Versions: 1 2 3 4 5 6 7 8 9 10 11 12 13 14 15 16 17 18 19 20 21 22 23 24 25 26 27 28 29 30 31 32 33 34 35 36 37 38 39 40 41 42 43 44 45 46 47 48 49 50
000
ASUS41 KLWX 051610
RWRLWX

REGIONAL WEATHER ROUNDUP
NATIONAL WEATHER SERVICE BALTIMORE MD/WASHINGTON DC
1200 PM EDT TUE MAY 05 2015

Note: "FAIR" indicates few or no clouds below 12,000 feet
with no significant weather and/or obstructions to visibility.
 TC=TEMPERATURE CELSIUS

 * =Non NWS site. Station does not report precipitation (e.g. rain,
    snow, etc.), thunder, or fog.

DCZ001-MDZ009-015-VAZ040>042-051-053>054-051700-
WASHINGTON METRO

CITY           SKY/WX    TMP DP  RH WIND       PRES   REMARKS
WASHINGTON NAT PTSUNNY   78  61  55 S6        30.27S
DULLES         PTSUNNY   78  57  48 CALM      30.27S
ANDREWS AFB    MOSUNNY   79  59  50 CALM      30.26S
FT BELVOIR     SUNNY     78  61  55 VRB2      30.27S
QUANTICO       MOSUNNY   73  60  63 S7        30.28S
COLLEGE PARK*  MOSUNNY   79  54  41 SE3       30.26S
LEESBURG*      MOSUNNY   81  61  50 NW7       30.28S
MANASSAS*      SUNNY     79  57  47 CALM      30.27F
GAITHERSBURG*  PTSUNNY   79  57  47 NW6       30.31R

$$

MDZ006>007-011-014-051700-
BALTIMORE METRO

CITY           SKY/WX    TMP DP  RH WIND       PRES   REMARKS
BWI AIRPORT    PTSUNNY   80  56  43 NW5       30.25S
MD SCIENCE CTR   N/A     79  54  41 MISG      30.26S
MARTIN STATE   PTSUNNY   72  63  73 E10       30.28S
ANNAPOLIS      SUNNY     67  59  75 SE10      30.26S
FORT MEADE*    MOSUNNY   79  55  44 CALM      30.28S

$$

MDZ012-015-019>023-051700-
MARYLAND EASTERN SHORE

CITY           SKY/WX    TMP DP  RH WIND       PRES   REMARKS
OCEAN CITY     SUNNY     77  57  50 SW14      30.26F
SALISBURY      SUNNY     76  57  51 W9        30.27F
BAY BRIDGE AP*   N/A    N/A N/A N/A SE5       30.27S
CAMBRIDGE*     SUNNY     77  55  47 SE3       30.26F
EASTON*        MOSUNNY   77  61  57 SW6       30.30F

$$

MDZ017>025-051700-
SOUTHERN MARYLAND

CITY           SKY/WX    TMP DP  RH WIND       PRES   REMARKS
PATUXENT RIVER MOSUNNY   76  58  53 SW3       30.27S
ST INIGOES     SUNNY     76  58  53 SW6       30.27F
LEONARDTOWN*   SUNNY     75  55  50 S5        30.28F

$$

MDZ003>005-051700-
NORTH CENTRAL MARYLAND

CITY           SKY/WX    TMP DP  RH WIND       PRES   REMARKS
FREDERICK*     MOSUNNY   81  50  34 NW5       30.29S
HAGERSTOWN APT PTSUNNY   74  55  51 NW6       30.29R
WESTMINSTER*   PTSUNNY   75  57  53 NW5       30.29R

$$

MDZ501>502-051700-
WESTERN MARYLAND

CITY           SKY/WX    TMP DP  RH WIND       PRES   REMARKS
OAKLAND*       PTSUNNY   64  55  72 SW5       30.36S
CUMBERLAND*    MOSUNNY   75  54  46 CALM      30.32S

$$

VAZ025>031-051700-
SHENANDOAH VALLEY

CITY           SKY/WX    TMP DP  RH WIND       PRES   REMARKS
WINCHESTER*    CLOUDY    79  45  29 CALM      30.28S
FRONT ROYAL*   FAIR      75  57  53 CALM      30.27F
LURAY*         CLOUDY    75  61  60 CALM      30.29S
NEW MARKET*    FAIR      79  58  48 CALM      30.27S
STAUNTON*      MOSUNNY   80  54  40 E3        30.31F
WAYNESBORO*    FAIR      79  53  41 SW5       30.31S

$$

WVZ021-048>050-054>055-051700-
EASTERN WEST VIRGINIA PANHANDLE

CITY           SKY/WX    TMP DP  RH WIND       PRES   REMARKS
MARTINSBURG    MOSUNNY   79  56  45 VRB3      30.27F
PETERSBURG*    PTSUNNY   80  51  36 N3        30.28S

$$

VAZ036>039-050-051700-
CENTRAL FOOTHILLS

CITY           SKY/WX    TMP DP  RH WIND       PRES   REMARKS
CHARLOTTESVILL MOSUNNY   81  59  47 VRB3      30.27F
CULPEPER*      MOSUNNY   78  58  49 CALM      30.28
ORANGE*        MOSUNNY   81  59  47 CALM      30.29S
GORDONSVILLE*  FAIR      79  60  50 E5        30.27F
WARRENTON*     FAIR      82  62  50 S5        30.27F

$$

VAZ055>057-051700-
NORTH AND CENTRAL PIEDMONT

CITY           SKY/WX    TMP DP  RH WIND       PRES   REMARKS
FREDERICKSBRG* MOSUNNY   82  58  44 CALM      30.26S
STAFFORD*      MOSUNNY   80  53  40 CALM      30.31S

$$

NCZ024-NYZ072-PAZ021-071-VAZ022-071-051700-
OTHER REGIONAL OBSERVATIONS

CITY           SKY/WX    TMP DP  RH WIND       PRES   REMARKS
NEW YORK CITY  PTSUNNY   78  54  43 E5        30.24S
PHILADELPHIA   PTSUNNY   76  55  48 SW5       30.24F
PITTSBURGH     PTSUNNY   67  61  81 W3        30.30S
ROANOKE        MOSUNNY   80  55  42 VRB3      30.32F
RICHMOND       MOSUNNY   77  58  51 SW8       30.29F
RALEIGH        MOSUNNY   77  58  51 SW12G20   30.34F

$$

ANZ530>537-051700-
MARINE OBSERVATIONS

STATION/POSITION TIME  TEMP    WIND        PRES
                       AIR SEA DIR/SP/G
                 (UTC) (F)     (DEG/KT/KT) (MB)
THOMAS PT LIGHT  1600   67 59  160/  9/ 10 1025.4S
BALT KEY BRIDGE  1500   71      60/  3/  3 1024.5R
COVE POINT       1500   72     280/  5/  8 1025.9R
LEWISETTA        1500   72 66              1025.2R
SOLOMONS ISLAND  1500      61                N/A
PINEY POINT      1500          360/  6/  7   N/A

$$




USA.gov is the U.S. government's official web portal to all federal, state and local government web resources and services.